Home > Weather > Santa Clarita > Past weeks

Flag for USA Past Weather in Santa Clarita, California, USA — Yesterday and Last 2 Weeks

Now
77 °F

Clear.


Feels Like: 79 °F
Forecast: 68 / 95 °F
Wind: No wind

Location: Van Nuys Airport

Current Time: Jul 24, 2016 at 12:01:59 AM

Latest Report: Jul 23, 2016 at 10:51 PM


Visibility: 10 mi

Pressure: 29.83 "Hg

Humidity: 62%

Dew Point: 63 °F

Location of Santa ClaritaLocation

Past Weather in Santa Clarita — Graph

°F

Santa Clarita Temperature Yesterday

Maximum temperature yesterday: 103 °F (at 1:51 PM)
Minimum temperature yesterday: 75 °F (at 5:51 AM)
Average temperature yesterday: 86 °F

High & Low Weather Summary for the Past Weeks

 TemperatureHumidityPressure
High107 °F (Jul 22, 3:51 PM)97% (Jul 14, 6:51 AM)30.02 "Hg (Jul 14, 6:51 AM)
Low61 °F (Jul 17, 4:51 AM)6% (Jul 22, 10:51 PM)29.75 "Hg (Jul 23, 2:51 PM)
Average78 °F51%29.90 "Hg
* Reported Jul 8 10:51 PM — Jul 23 10:51 PM, Santa Clarita, Weather by CustomWeather, © 2016

Note: Actual official high and low records may vary slightly from our data, if they occured in-between our weather recording intervals... More about our weather records

Advertising

Santa Clarita Weather History for the Previous 24 Hours

Scroll right to see more
 ConditionsComfort  
Time TempWeatherWind HumidityBarometerVisibility
10:51 PM
Sat, Jul 23
77 °FClear.No wind62%29.83 "Hg10 mi
9:51 PM75 °FClear.No wind69%29.83 "Hg10 mi
8:51 PM78 °FSunny.6 mph58%29.81 "Hg10 mi
7:51 PM80 °FOvercast.5 mph51%29.79 "Hg10 mi
6:51 PM81 °FPartly sunny.8 mph51%29.78 "Hg10 mi
5:51 PM82 °FOvercast.7 mph48%29.78 "Hg10 mi
4:51 PM86 °FPartly sunny.8 mph39%29.78 "Hg10 mi
3:51 PM91 °FScattered clouds.12 mph28%29.77 "Hg10 mi
2:51 PM100 °FSunny.13 mph18%29.75 "Hg10 mi
1:51 PM103 °FSunny.10 mph15%29.76 "Hg8 mi
12:51 PM100 °FSunny.3 mph14%29.77 "Hg7 mi
11:51 AM96 °FScattered clouds.3 mph17%29.78 "Hg6 mi
10:51 AM91 °FOvercast.No wind26%29.80 "Hg8 mi
9:51 AM88 °FSunny.3 mph26%29.81 "Hg10 mi
8:51 AM82 °FPartly sunny.5 mph33%29.80 "Hg10 mi
7:51 AM77 °FOvercast.No wind37%29.81 "Hg10 mi
6:51 AM76 °FPassing clouds.3 mph54%29.80 "Hg10 mi
5:51 AM75 °FOvercast.No wind55%29.78 "Hg10 mi
4:51 AM78 °FPassing clouds.No wind43%29.77 "Hg10 mi
3:51 AM85 °FPassing clouds.8 mph18%29.77 "Hg10 mi
2:51 AM88 °FPassing clouds.9 mph9%29.77 "Hg10 mi
1:51 AM89 °FClear.12 mph9%29.77 "Hg10 mi
12:51 AM91 °FClear.15 mph7%29.79 "Hg10 mi
Weather by CustomWeather, © 2016

See weather overviewHow to use our weather pages